Time,TemperatureF,DewpointF,PressureIn,WindDirection,WindDirectionDegrees,WindSpeedMPH,WindSpeedGustMPH,Humidity,HourlyPrecipIn,Conditions,Clouds,dailyrainin,SoftwareType,DateUTC
2013-06-17 00:09:00,72.3,47.9,29.99,WNW,284,6.0,11.0,42,0.00,CLR,,0.00,WeatherDisplay:10.37,2013-06-17 04:09:00,
2013-06-17 00:19:00,72.3,47.9,29.99,WNW,287,7.0,10.0,42,0.00,CLR,,0.00,WeatherDisplay:10.37,2013-06-17 04:19:00,
2013-06-17 00:29:00,72.0,47.6,29.99,West,273,6.0,8.0,42,0.00,CLR,,0.00,WeatherDisplay:10.37,2013-06-17 04:29:00,
2013-06-17 00:39:00,71.8,47.5,29.99,NW,326,0.0,6.0,42,0.00,CLR,,0.00,WeatherDisplay:10.37,2013-06-17 04:39:00,
2013-06-17 00:49:00,71.4,48.4,29.99,NW,304,5.0,8.0,44,0.00,CLR,,0.00,WeatherDisplay:10.37,2013-06-17 04:49:00,
2013-06-17 00:59:00,71.7,48.0,29.99,WNW,293,5.0,11.0,43,0.00,CLR,,0.00,WeatherDisplay:10.37,2013-06-17 04:59:00,
2013-06-17 01:09:00,71.9,47.5,29.99,WNW,296,5.0,6.0,42,0.00,CLR,,0.00,WeatherDisplay:10.37,2013-06-17 05:09:00,
2013-06-17 01:19:00,71.8,47.4,29.99,WNW,296,3.0,6.0,42,0.00,CLR,,0.00,WeatherDisplay:10.37,2013-06-17 05:19:00,
2013-06-17 01:29:00,71.2,48.2,29.99,NW,314,3.0,6.0,44,0.00,CLR,,0.00,WeatherDisplay:10.37,2013-06-17 05:29:00,
2013-06-17 01:39:00,71.6,47.9,29.99,NW,323,3.0,6.0,43,0.00,CLR,,0.00,WeatherDisplay:10.37,2013-06-17 05:39:00,
2013-06-17 01:49:00,71.4,47.7,29.99,NW,315,2.0,4.0,43,0.00,CLR,,0.00,WeatherDisplay:10.37,2013-06-17 05:49:00,
2013-06-17 01:59:00,71.4,47.7,29.99,NNW,334,3.0,6.0,43,0.00,CLR,,0.00,WeatherDisplay:10.37,2013-06-17 05:59:00,
2013-06-17 02:09:00,71.4,47.7,29.99,NNW,329,3.0,6.0,43,0.00,CLR,,0.00,WeatherDisplay:10.37,2013-06-17 06:09:00,
2013-06-17 02:19:00,71.1,48.0,29.99,NW,312,2.0,6.0,44,0.00,CLR,,0.00,WeatherDisplay:10.37,2013-06-17 06:19:00,
2013-06-17 02:29:00,71.1,48.0,29.99,North,355,2.0,5.0,44,0.00,CLR,,0.00,WeatherDisplay:10.37,2013-06-17 06:29:00,
2013-06-17 02:39:00,70.2,47.2,29.99,SSE,160,1.0,3.0,44,0.00,CLR,,0.00,WeatherDisplay:10.37,2013-06-17 06:39:00,
2013-06-17 02:49:00,68.9,46.7,29.99,SE,126,0.0,3.0,45,0.00,CLR,,0.00,WeatherDisplay:10.37,2013-06-17 06:49:00,
2013-06-17 02:59:00,67.6,47.2,29.99,East,79,0.0,0.0,48,0.00,CLR,,0.00,WeatherDisplay:10.37,2013-06-17 06:59:00,
2013-06-17 03:09:00,66.8,47.6,29.99,NE,35,0.0,0.0,50,0.00,CLR,,0.00,WeatherDisplay:10.37,2013-06-17 07:09:00,
2013-06-17 03:19:00,66.4,48.7,29.99,NNE,26,0.0,0.0,53,0.00,CLR,,0.00,WeatherDisplay:10.37,2013-06-17 07:19:00,
2013-06-17 03:29:00,66.0,49.9,29.99,NE,39,0.0,0.0,56,0.00,CLR,,0.00,WeatherDisplay:10.37,2013-06-17 07:29:00,
2013-06-17 03:39:00,65.8,50.6,29.99,ENE,73,0.0,0.0,58,0.00,CLR,,0.00,WeatherDisplay:10.37,2013-06-17 07:39:00,
2013-06-17 03:49:00,65.8,51.1,29.99,East,87,0.0,0.0,59,0.00,CLR,,0.00,WeatherDisplay:10.37,2013-06-17 07:49:00,
2013-06-17 03:59:00,65.8,52.0,29.99,ESE,119,0.0,0.0,61,0.00,CLR,,0.00,WeatherDisplay:10.37,2013-06-17 07:59:00,
2013-06-17 04:09:00,65.8,52.5,29.99,East,89,0.0,0.0,62,0.00,CLR,,0.00,WeatherDisplay:10.37,2013-06-17 08:09:00,
2013-06-17 04:19:00,65.7,53.1,29.99,East,86,0.0,0.0,64,0.00,CLR,,0.00,WeatherDisplay:10.37,2013-06-17 08:19:00,
2013-06-17 04:29:00,65.9,53.8,29.99,ENE,63,0.0,0.0,65,0.00,CLR,,0.00,WeatherDisplay:10.37,2013-06-17 08:29:00,
2013-06-17 04:39:00,65.9,53.8,29.99,NE,55,0.0,0.0,65,0.00,CLR,,0.00,WeatherDisplay:10.37,2013-06-17 08:39:00,
2013-06-17 04:49:00,65.7,53.6,29.99,East,96,0.0,0.0,65,0.00,CLR,,0.00,WeatherDisplay:10.37,2013-06-17 08:49:00,
2013-06-17 04:59:00,65.3,53.6,29.99,East,96,0.0,0.0,66,0.00,CLR,,0.00,WeatherDisplay:10.37,2013-06-17 08:59:00,
2013-06-17 05:09:00,65.1,53.5,29.99,East,96,0.0,0.0,66,0.00,CLR,,0.00,WeatherDisplay:10.37,2013-06-17 09:09:00,
2013-06-17 05:19:00,65.2,54.0,29.99,East,96,0.0,0.0,67,0.00,CLR,,0.00,WeatherDisplay:10.37,2013-06-17 09:19:00,
2013-06-17 05:29:00,65.3,54.1,30.02,East,96,0.0,0.0,67,0.00,CLR,,0.00,WeatherDisplay:10.37,2013-06-17 09:29:00,
2013-06-17 05:39:00,65.1,53.8,29.99,East,96,0.0,0.0,67,0.00,CLR,,0.00,WeatherDisplay:10.37,2013-06-17 09:39:00,
2013-06-17 05:49:00,64.9,54.1,29.99,East,96,0.0,0.0,68,0.00,CLR,,0.00,WeatherDisplay:10.37,2013-06-17 09:49:00,
2013-06-17 05:59:00,65.1,54.2,30.02,East,96,0.0,0.0,68,0.00,CLR,,0.00,WeatherDisplay:10.37,2013-06-17 09:59:00,
2013-06-17 06:09:00,65.3,54.9,30.02,East,96,0.0,0.0,69,0.00,CLR,,0.00,WeatherDisplay:10.37,2013-06-17 10:09:00,
2013-06-17 06:19:00,66.0,56.0,30.02,East,96,0.0,0.0,70,0.00,CLR,,0.00,WeatherDisplay:10.37,2013-06-17 10:19:00,
2013-06-17 06:29:00,66.6,56.5,30.02,ESE,105,0.0,0.0,70,0.00,CLR,,0.00,WeatherDisplay:10.37,2013-06-17 10:29:00,
2013-06-17 06:39:00,67.1,57.0,30.02,ESE,105,0.0,0.0,70,0.00,CLR,,0.00,WeatherDisplay:10.37,2013-06-17 10:39:00,
2013-06-17 06:49:00,67.3,57.2,30.02,ESE,107,0.0,0.0,70,0.00,CLR,,0.00,WeatherDisplay:10.37,2013-06-17 10:49:00,
2013-06-17 06:59:00,67.8,57.7,30.02,NNE,32,0.0,0.0,70,0.00,CLR,,0.00,WeatherDisplay:10.37,2013-06-17 10:59:00,
2013-06-17 07:09:00,68.4,58.2,30.02,NNE,26,0.0,0.0,70,0.00,CLR,,0.00,WeatherDisplay:10.37,2013-06-17 11:09:00,
2013-06-17 07:19:00,69.1,58.9,30.02,NNE,26,0.0,0.0,70,0.00,CLR,,0.00,WeatherDisplay:10.37,2013-06-17 11:19:00,
2013-06-17 07:29:00,69.4,59.2,30.02,NNE,26,0.0,0.0,70,0.00,CLR,,0.00,WeatherDisplay:10.37,2013-06-17 11:29:00,
2013-06-17 07:39:00,70.3,59.6,30.02,East,79,0.0,0.0,69,0.00,CLR,,0.00,WeatherDisplay:10.37,2013-06-17 11:39:00,
2013-06-17 07:49:00,71.1,60.0,30.02,SE,134,0.0,0.0,68,0.00,CLR,,0.00,WeatherDisplay:10.37,2013-06-17 11:49:00,
2013-06-17 07:59:00,71.6,59.6,30.02,WSW,253,3.0,4.0,66,0.00,CLR,,0.00,WeatherDisplay:10.37,2013-06-17 11:59:00,
2013-06-17 08:09:00,71.6,57.4,30.02,West,271,2.0,4.0,61,0.00,CLR,,0.00,WeatherDisplay:10.37,2013-06-17 12:09:00,
2013-06-17 08:19:00,71.8,57.6,30.02,West,278,0.0,4.0,61,0.00,CLR,,0.00,WeatherDisplay:10.37,2013-06-17 12:19:00,
2013-06-17 08:29:00,72.1,57.5,30.02,West,262,3.0,4.0,60,0.00,CLR,,0.00,WeatherDisplay:10.37,2013-06-17 12:29:00,
2013-06-17 08:39:00,72.3,57.2,30.02,West,265,1.0,5.0,59,0.00,CLR,,0.00,WeatherDisplay:10.37,2013-06-17 12:39:00,
2013-06-17 08:49:00,72.6,57.4,30.02,WSW,255,0.0,4.0,59,0.00,CLR,,0.00,WeatherDisplay:10.37,2013-06-17 12:49:00,
2013-06-17 08:59:00,73.0,57.3,30.02,West,269,2.0,5.0,58,0.00,CLR,,0.00,WeatherDisplay:10.37,2013-06-17 12:59:00,
2013-06-17 09:09:00,73.2,56.6,30.02,WSW,249,2.0,5.0,56,0.00,CLR,,0.00,WeatherDisplay:10.37,2013-06-17 13:09:00,
2013-06-17 09:19:00,73.9,57.7,30.02,SW,216,1.0,6.0,57,0.00,CLR,,0.00,WeatherDisplay:10.37,2013-06-17 13:19:00,
2013-06-17 09:29:00,74.8,57.1,30.02,West,275,2.0,6.0,54,0.00,CLR,,0.00,WeatherDisplay:10.37,2013-06-17 13:29:00,
2013-06-17 09:39:00,76.0,55.5,30.02,West,272,5.0,9.0,49,0.00,CLR,,0.00,WeatherDisplay:10.37,2013-06-17 13:39:00,
2013-06-17 09:49:00,76.6,54.9,30.02,NW,305,5.0,9.0,47,0.00,CLR,,0.00,WeatherDisplay:10.37,2013-06-17 13:49:00,
2013-06-17 09:59:00,76.9,52.7,30.02,WNW,299,7.0,9.0,43,0.00,CLR,,0.00,WeatherDisplay:10.37,2013-06-17 13:59:00,
2013-06-17 10:09:00,77.4,54.4,30.02,West,265,3.0,10.0,45,0.00,CLR,,0.00,WeatherDisplay:10.37,2013-06-17 14:09:00,
2013-06-17 10:19:00,77.9,54.2,30.02,West,274,7.0,9.0,44,0.00,CLR,,0.00,WeatherDisplay:10.37,2013-06-17 14:19:00,
2013-06-17 10:29:00,78.2,53.8,30.02,West,268,7.0,8.0,43,0.00,CLR,,0.00,WeatherDisplay:10.37,2013-06-17 14:29:00,
2013-06-17 10:39:00,78.5,52.2,30.02,West,266,5.0,8.0,40,0.00,CLR,,0.00,WeatherDisplay:10.37,2013-06-17 14:39:00,
2013-06-17 10:49:00,79.0,52.6,30.02,West,268,6.0,11.0,40,0.00,CLR,,0.00,WeatherDisplay:10.37,2013-06-17 14:49:00,
2013-06-17 10:59:00,79.2,53.4,29.99,West,268,6.0,9.0,41,0.00,CLR,,0.00,WeatherDisplay:10.37,2013-06-17 14:59:00,
2013-06-17 11:09:00,78.2,49.8,29.99,WSW,256,3.0,8.0,37,0.00,CLR,,0.00,WeatherDisplay:10.37,2013-06-17 15:09:00,
2013-06-17 11:19:00,78.4,51.4,29.99,West,265,3.0,9.0,39,0.00,CLR,,0.00,WeatherDisplay:10.37,2013-06-17 15:19:00,
2013-06-17 11:29:00,79.4,53.7,29.99,West,267,2.0,8.0,41,0.00,CLR,,0.00,WeatherDisplay:10.37,2013-06-17 15:29:00,
2013-06-17 11:39:00,79.2,51.4,30.02,WNW,288,5.0,8.0,38,0.00,CLR,,0.00,WeatherDisplay:10.37,2013-06-17 15:39:00,
2013-06-17 11:49:00,79.3,51.5,30.02,West,269,5.0,8.0,38,0.00,CLR,,0.00,WeatherDisplay:10.37,2013-06-17 15:49:00,
2013-06-17 11:59:00,80.1,52.9,30.02,WNW,284,7.0,11.0,39,0.00,CLR,,0.00,WeatherDisplay:10.37,2013-06-17 15:59:00,
2013-06-17 12:09:00,80.8,50.6,29.99,WNW,282,8.0,12.0,35,0.00,CLR,,0.00,WeatherDisplay:10.37,2013-06-17 16:09:00,
2013-06-17 12:19:00,80.8,49.0,29.99,West,273,7.0,12.0,33,0.00,CLR,,0.00,WeatherDisplay:10.37,2013-06-17 16:19:00,
2013-06-17 12:29:00,80.4,48.7,29.99,West,268,5.0,8.0,33,0.00,CLR,,0.00,WeatherDisplay:10.37,2013-06-17 16:29:00,
2013-06-17 12:39:00,81.2,52.5,29.99,WNW,282,6.0,11.0,37,0.00,CLR,,0.00,WeatherDisplay:10.37,2013-06-17 16:39:00,
2013-06-17 12:49:00,81.6,48.9,29.99,WNW,297,5.0,9.0,32,0.00,CLR,,0.00,WeatherDisplay:10.37,2013-06-17 16:49:00,
2013-06-17 12:59:00,81.3,51.1,29.99,West,273,3.0,9.0,35,0.00,CLR,,0.00,WeatherDisplay:10.37,2013-06-17 16:59:00,
2013-06-17 13:09:00,81.5,49.7,29.99,WNW,292,5.0,9.0,33,0.00,CLR,,0.00,WeatherDisplay:10.37,2013-06-17 17:09:00,
2013-06-17 13:19:00,81.7,49.8,29.99,West,268,3.0,8.0,33,0.00,CLR,,0.00,WeatherDisplay:10.37,2013-06-17 17:19:00,
2013-06-17 13:29:00,81.1,48.5,29.99,West,265,5.0,10.0,32,0.00,CLR,,0.00,WeatherDisplay:10.37,2013-06-17 17:29:00,
2013-06-17 13:39:00,81.4,51.9,29.99,WNW,296,5.0,9.0,36,0.00,CLR,,0.00,WeatherDisplay:10.37,2013-06-17 17:39:00,
2013-06-17 13:49:00,82.4,51.2,29.99,WNW,287,5.0,9.0,34,0.00,CLR,,0.00,WeatherDisplay:10.37,2013-06-17 17:49:00,
2013-06-17 13:59:00,82.8,52.3,29.99,SSW,196,6.0,9.0,35,0.00,CLR,,0.00,WeatherDisplay:10.37,2013-06-17 17:59:00,
2013-06-17 14:09:00,81.9,50.7,29.99,SE,141,3.0,9.0,34,0.00,CLR,,0.00,WeatherDisplay:10.37,2013-06-17 18:09:00,
2013-06-17 14:19:00,81.1,50.1,29.99,SSW,210,3.0,6.0,34,0.00,CLR,,0.00,WeatherDisplay:10.37,2013-06-17 18:19:00,
2013-06-17 14:29:00,80.6,51.2,29.99,WNW,299,2.0,4.0,36,0.00,CLR,,0.00,WeatherDisplay:10.37,2013-06-17 18:29:00,
2013-06-17 14:39:00,81.4,50.4,29.99,West,280,5.0,8.0,34,0.00,CLR,,0.00,WeatherDisplay:10.37,2013-06-17 18:39:00,
2013-06-17 14:49:00,82.6,50.5,29.99,WSW,258,2.0,6.0,33,0.00,CLR,,0.00,WeatherDisplay:10.37,2013-06-17 18:49:00,
2013-06-17 14:59:00,83.1,50.2,29.99,WNW,301,5.0,6.0,32,0.00,CLR,,0.00,WeatherDisplay:10.37,2013-06-17 18:59:00,
2013-06-17 15:09:00,83.7,48.9,29.96,WSW,257,2.0,5.0,30,0.00,CLR,,0.00,WeatherDisplay:10.37,2013-06-17 19:09:00,
2013-06-17 15:19:00,84.2,50.3,29.96,WNW,289,1.0,6.0,31,0.00,CLR,,0.00,WeatherDisplay:10.37,2013-06-17 19:19:00,
2013-06-17 15:29:00,83.7,48.9,29.96,South,186,2.0,6.0,30,0.00,CLR,,0.00,WeatherDisplay:10.37,2013-06-17 19:29:00,
2013-06-17 15:39:00,84.0,50.1,29.96,SW,230,3.0,6.0,31,0.00,CLR,,0.00,WeatherDisplay:10.37,2013-06-17 19:39:00,
2013-06-17 15:49:00,83.8,49.1,29.96,West,272,5.0,8.0,30,0.00,CLR,,0.00,WeatherDisplay:10.37,2013-06-17 19:49:00,
2013-06-17 15:59:00,83.3,48.6,29.96,WNW,301,2.0,6.0,30,0.00,CLR,,0.00,WeatherDisplay:10.37,2013-06-17 19:59:00,
2013-06-17 16:09:00,83.3,51.2,29.96,SSW,201,5.0,6.0,33,0.00,CLR,,0.00,WeatherDisplay:10.37,2013-06-17 20:09:00,
2013-06-17 16:19:00,83.3,49.5,29.96,SSE,161,2.0,6.0,31,0.00,CLR,,0.00,WeatherDisplay:10.37,2013-06-17 20:19:00,
2013-06-17 16:29:00,83.5,49.7,29.96,SSE,153,1.0,5.0,31,0.00,CLR,,0.00,WeatherDisplay:10.37,2013-06-17 20:29:00,
2013-06-17 16:39:00,84.1,51.1,29.93,SSE,162,5.0,7.0,32,0.00,CLR,,0.00,WeatherDisplay:10.37,2013-06-17 20:39:00,
2013-06-17 16:49:00,84.0,51.0,29.93,WNW,292,5.0,6.0,32,0.00,CLR,,0.00,WeatherDisplay:10.37,2013-06-17 20:49:00,
2013-06-17 16:59:00,84.0,45.4,29.96,NW,312,3.0,6.0,26,0.00,CLR,,0.00,WeatherDisplay:10.37,2013-06-17 20:59:00,
2013-06-17 17:09:00,84.2,45.6,29.93,WNW,299,5.0,6.0,26,0.00,CLR,,0.00,WeatherDisplay:10.37,2013-06-17 21:09:00,
2013-06-17 17:19:00,83.6,50.6,29.93,West,269,1.0,8.0,32,0.00,CLR,,0.00,WeatherDisplay:10.37,2013-06-17 21:19:00,
2013-06-17 17:29:00,83.3,50.4,29.93,SW,219,5.0,8.0,32,0.00,CLR,,0.00,WeatherDisplay:10.37,2013-06-17 21:29:00,
2013-06-17 17:39:00,83.4,51.3,29.96,South,191,5.0,7.0,33,0.00,CLR,,0.00,WeatherDisplay:10.37,2013-06-17 21:39:00,
2013-06-17 17:49:00,83.7,50.7,29.96,WSW,249,2.0,6.0,32,0.00,CLR,,0.00,WeatherDisplay:10.37,2013-06-17 21:49:00,
2013-06-17 17:59:00,83.5,49.7,29.96,West,262,2.0,6.0,31,0.00,CLR,,0.00,WeatherDisplay:10.37,2013-06-17 21:59:00,
2013-06-17 18:09:00,83.7,49.8,29.96,West,265,2.0,6.0,31,0.00,CLR,,0.00,WeatherDisplay:10.37,2013-06-17 22:09:00,
2013-06-17 18:19:00,83.7,51.5,29.96,West,260,2.0,6.0,33,0.00,CLR,,0.00,WeatherDisplay:10.37,2013-06-17 22:19:00,
2013-06-17 18:29:00,83.5,49.7,29.96,West,259,3.0,6.0,31,0.00,CLR,,0.00,WeatherDisplay:10.37,2013-06-17 22:29:00,
2013-06-17 18:39:00,83.7,50.7,29.96,West,262,1.0,5.0,32,0.00,CLR,,0.00,WeatherDisplay:10.37,2013-06-17 22:39:00,
2013-06-17 18:49:00,84.0,51.0,29.96,West,269,2.0,5.0,32,0.00,CLR,,0.00,WeatherDisplay:10.37,2013-06-17 22:49:00,
2013-06-17 18:59:00,84.3,50.4,29.96,West,266,1.0,4.0,31,0.00,CLR,,0.00,WeatherDisplay:10.37,2013-06-17 22:59:00,
2013-06-17 19:09:00,83.5,49.7,29.96,WNW,282,1.0,4.0,31,0.00,CLR,,0.00,WeatherDisplay:10.37,2013-06-17 23:09:00,
2013-06-17 19:19:00,83.8,50.8,29.96,WNW,303,0.0,4.0,32,0.00,CLR,,0.00,WeatherDisplay:10.37,2013-06-17 23:19:00,
2013-06-17 19:29:00,83.8,49.1,29.96,SW,232,0.0,4.0,30,0.00,CLR,,0.00,WeatherDisplay:10.37,2013-06-17 23:29:00,
2013-06-17 19:39:00,83.1,49.3,29.96,NW,316,0.0,3.0,31,0.00,CLR,,0.00,WeatherDisplay:10.37,2013-06-17 23:39:00,
2013-06-17 19:49:00,83.1,51.0,29.96,SSW,203,0.0,0.0,33,0.00,CLR,,0.00,WeatherDisplay:10.37,2013-06-17 23:49:00,
2013-06-17 19:59:00,82.6,51.4,29.96,SSW,200,0.0,0.0,34,0.00,CLR,,0.00,WeatherDisplay:10.37,2013-06-17 23:59:00,
2013-06-17 20:09:00,80.5,51.1,29.96,SSW,200,0.0,0.0,36,0.00,CLR,,0.00,WeatherDisplay:10.37,2013-06-18 00:09:00,
2013-06-17 20:19:00,77.9,52.3,29.96,East,95,0.0,0.0,41,0.00,CLR,,0.00,WeatherDisplay:10.37,2013-06-18 00:19:00,
2013-06-17 20:29:00,76.0,53.1,29.96,ESE,103,2.0,3.0,45,0.00,CLR,,0.00,WeatherDisplay:10.37,2013-06-18 00:29:00,
2013-06-17 20:39:00,74.2,53.8,29.96,ESE,104,2.0,4.0,49,0.00,CLR,,0.00,WeatherDisplay:10.37,2013-06-18 00:39:00,
2013-06-17 20:49:00,73.4,54.7,29.96,ESE,109,3.0,4.0,52,0.00,CLR,,0.00,WeatherDisplay:10.37,2013-06-18 00:49:00,
2013-06-17 20:59:00,73.0,56.4,29.96,East,100,3.0,5.0,56,0.00,CLR,,0.00,WeatherDisplay:10.37,2013-06-18 00:59:00,
2013-06-17 21:09:00,72.5,56.4,29.96,East,98,2.0,5.0,57,0.00,CLR,,0.00,WeatherDisplay:10.37,2013-06-18 01:09:00,
2013-06-17 21:19:00,71.6,56.0,29.96,East,101,2.0,4.0,58,0.00,CLR,,0.00,WeatherDisplay:10.37,2013-06-18 01:19:00,
2013-06-17 21:29:00,70.9,56.7,29.96,ESE,110,1.0,3.0,61,0.00,CLR,,0.00,WeatherDisplay:10.37,2013-06-18 01:29:00,
2013-06-17 21:39:00,70.5,56.4,29.99,ESE,107,3.0,4.0,61,0.00,CLR,,0.00,WeatherDisplay:10.37,2013-06-18 01:39:00,
2013-06-17 21:49:00,70.5,57.3,29.99,ESE,107,3.0,5.0,63,0.00,CLR,,0.00,WeatherDisplay:10.37,2013-06-18 01:49:00,
2013-06-17 21:59:00,70.3,57.6,29.99,ESE,110,3.0,6.0,64,0.00,CLR,,0.00,WeatherDisplay:10.37,2013-06-18 01:59:00,
2013-06-17 22:09:00,70.2,57.8,29.99,East,93,3.0,5.0,65,0.00,CLR,,0.00,WeatherDisplay:10.37,2013-06-18 02:09:00,
2013-06-17 22:19:00,70.5,58.2,29.99,East,95,5.0,6.0,65,0.00,CLR,,0.00,WeatherDisplay:10.37,2013-06-18 02:19:00,
2013-06-17 22:29:00,70.5,57.8,29.99,SE,132,2.0,6.0,64,0.00,CLR,,0.00,WeatherDisplay:10.37,2013-06-18 02:29:00,
2013-06-17 22:39:00,70.2,57.0,29.99,ENE,73,2.0,3.0,63,0.00,CLR,,0.00,WeatherDisplay:10.37,2013-06-18 02:39:00,
2013-06-17 22:49:00,69.8,57.1,29.99,SE,131,2.0,4.0,64,0.00,CLR,,0.00,WeatherDisplay:10.37,2013-06-18 02:49:00,
2013-06-17 22:59:00,70.2,57.8,29.99,ESE,113,3.0,6.0,65,0.00,CLR,,0.00,WeatherDisplay:10.37,2013-06-18 02:59:00,
2013-06-17 23:09:00,71.3,59.7,29.99,ESE,102,3.0,6.0,67,0.00,CLR,,0.00,WeatherDisplay:10.37,2013-06-18 03:09:00,
2013-06-17 23:19:00,71.8,59.8,29.99,ESE,121,3.0,6.0,66,0.00,CLR,,0.00,WeatherDisplay:10.37,2013-06-18 03:19:00,
2013-06-17 23:29:00,72.5,60.1,29.99,SE,131,2.0,8.0,65,0.00,CLR,,0.00,WeatherDisplay:10.37,2013-06-18 03:29:00,
2013-06-17 23:39:00,72.2,58.9,29.99,ESE,104,3.0,4.0,63,0.00,CLR,,0.00,WeatherDisplay:10.37,2013-06-18 03:39:00,
2013-06-17 23:49:00,71.7,57.9,29.99,East,87,0.0,5.0,62,0.00,CLR,,0.00,WeatherDisplay:10.37,2013-06-18 03:49:00,
2013-06-17 23:59:00,70.9,57.2,29.99,East,100,1.0,3.0,62,0.00,CLR,,0.00,WeatherDisplay:10.37,2013-06-18 03:59:00,